Total_Precipitation_Accumulation
0.00 0.00 0.00 0.00 0.01 0.01 0.02 0.04 0.13 0.16 0.13 0.19 0.18 0.19 0.27 0.38 0.34 0.23 0.17 0.13 0.15 0.22 0.36 0.57 1.00 1.67 2.48 3.20 3.35 2.93 2.49 2.22 1.96 1.64 1.16 0.85 0.74 0.71 0.67 0.57 0.51 0.46 0.42 0.43
0.00 0.01 0.01 0.01 0.01 0.02 0.03 0.03 0.11 0.18 0.13 0.13 0.17 0.28 0.44 0.47 0.37 0.22 0.15 0.13 0.18 0.34 0.63 1.15 1.97 2.49 2.51 2.43 2.06 1.67 1.49 1.36 1.09 0.81 0.56 0.45 0.41 0.38 0.36 0.34 0.36 0.34 0.29 0.30
0.01 0.03 0.01 0.01 0.02 0.07 0.06 0.05 0.11 0.19 0.10 0.07 0.19 0.46 0.55 0.45 0.37 0.23 0.16 0.16 0.35 0.69 1.14 1.78 2.20 2.09 1.55 1.07 0.88 0.81 0.74 0.54 0.39 0.35 0.31 0.27 0.24 0.25 0.23 0.22 0.24 0.24 0.21 0.22
0.01 0.02 0.01 0.01 0.03 0.06 0.05 0.03 0.04 0.06 0.07 0.17 0.34 0.66 0.71 0.47 0.44 0.33 0.27 0.23 0.36 0.59 0.82 1.11 1.24 0.99 0.82 0.71 0.63 0.65 0.57 0.34 0.27 0.23 0.19 0.18 0.17 0.19 0.19 0.19 0.19 0.19 0.17 0.18
0.02 0.02 0.01 0.01 0.02 0.02 0.02 0.02 0.02 0.05 0.09 0.17 0.31 0.57 0.67 0.53 0.58 0.42 0.27 0.24 0.28 0.42 0.48 0.45 0.44 0.40 0.39 0.40 0.43 0.51 0.50 0.43 0.34 0.28 0.22 0.20 0.18 0.17 0.18 0.19 0.19 0.20 0.20 0.18
0.02 0.02 0.01 0.01 0.01 0.02 0.02 0.03 0.04 0.09 0.14 0.32 0.47 0.60 0.77 0.70 0.74 0.54 0.35 0.25 0.27 0.39 0.42 0.34 0.26 0.22 0.24 0.25 0.27 0.33 0.43 0.52 0.49 0.43 0.35 0.29 0.23 0.21 0.19 0.18 0.19 0.19 0.18 0.18
0.07 0.05 0.02 0.01 0.02 0.03 0.04 0.03 0.07 0.30 0.51 0.60 0.46 0.54 0.78 0.62 0.57 0.41 0.21 0.14 0.21 0.36 0.45 0.42 0.31 0.23 0.18 0.17 0.15 0.13 0.15 0.24 0.28 0.28 0.30 0.31 0.30 0.26 0.21 0.18 0.15 0.17 0.16 0.16
0.13 0.09 0.03 0.02 0.03 0.04 0.03 0.01 0.04 0.08 0.13 0.24 0.34 0.60 0.76 0.60 0.38 0.17 0.07 0.06 0.15 0.22 0.25 0.25 0.19 0.13 0.08 0.06 0.06 0.04 0.04 0.05 0.07 0.09 0.13 0.18 0.21 0.17 0.15 0.21 0.17 0.17 0.21 0.22
0.04 0.03 0.02 0.02 0.03 0.03 0.02 0.01 0.01 0.02 0.04 0.14 0.36 0.59 0.54 0.46 0.31 0.13 0.07 0.05 0.06 0.08 0.09 0.10 0.10 0.08 0.06 0.04 0.03 0.03 0.02 0.02 0.02 0.03 0.05 0.09 0.15 0.15 0.14 0.16 0.17 0.16 0.22 0.23
0.00 0.01 0.01 0.01 0.02 0.02 0.02 0.01 0.01 0.02 0.05 0.09 0.22 0.50 0.61 0.47 0.32 0.13 0.08 0.07 0.06 0.08 0.07 0.07 0.06 0.06 0.05 0.04 0.04 0.04 0.03 0.02 0.02 0.02 0.03 0.05 0.12 0.15 0.16 0.15 0.17 0.19 0.18 0.18
0.00 0.00 0.02 0.02 0.02 0.03 0.02 0.02 0.02 0.02 0.03 0.05 0.09 0.24 0.25 0.20 0.13 0.09 0.05 0.03 0.04 0.04 0.05 0.04 0.04 0.04 0.04 0.03 0.03 0.03 0.03 0.03 0.02 0.02 0.02 0.02 0.06 0.10 0.14 0.18 0.19 0.20 0.19 0.17
0.00 0.00 0.01 0.03 0.03 0.03 0.02 0.02 0.02 0.03 0.03 0.03 0.05 0.15 0.10 0.10 0.09 0.06 0.02 0.01 0.01 0.01 0.01 0.01 0.02 0.02 0.02 0.03 0.03 0.04 0.04 0.03 0.03 0.02 0.02 0.01 0.01 0.03 0.06 0.11 0.14 0.16 0.16 0.15
0.00 0.00 0.01 0.05 0.05 0.03 0.02 0.02 0.03 0.03 0.04 0.03 0.10 0.19 0.10 0.05 0.04 0.02 0.01 0.00 0.00 0.00 0.00 0.01 0.01 0.02 0.03 0.03 0.03 0.02 0.02 0.02 0.01 0.01 0.01 0.01 0.01 0.01 0.02 0.05 0.08 0.11 0.13 0.14
0.00 0.00 0.00 0.02 0.01 0.01 0.02 0.04 0.05 0.05 0.02 0.01 0.05 0.16 0.07 0.02 0.01 0.00 0.00 0.00 0.00 0.00 0.00 0.00 0.01 0.01 0.01 0.01 0.01 0.00 0.00 0.00 0.00 0.01 0.01 0.01 0.02 0.02 0.02 0.02 0.04 0.06 0.09 0.12
0.00 0.00 0.00 0.00 0.00 0.01 0.02 0.05 0.04 0.02 0.01 0.03 0.04 0.07 0.03 0.01 0.01 0.00 0.00 0.00 0.00 0.00 0.01 0.01 0.01 0.01 0.01 0.02 0.02 0.02 0.03 0.03 0.04 0.05 0.05 0.06 0.06 0.06 0.05 0.05 0.05 0.06 0.08 0.11
0.00 0.00 0.00 0.00 0.00 0.01 0.03 0.06 0.03 0.01 0.00 0.00 0.00 0.01 0.00 0.00 0.01 0.01 0.02 0.03 0.04 0.04 0.04 0.04 0.04 0.03 0.02 0.02 0.02 0.02 0.03 0.03 0.04 0.05 0.05 0.05 0.05 0.05 0.06 0.06 0.06 0.07 0.10 0.15
0.00 0.00 0.00 0.00 0.00 0.01 0.07 0.04 0.01 0.00 0.00 0.00 0.00 0.00 0.00 0.01 0.01 0.02 0.05 0.06 0.05 0.03 0.02 0.01 0.01 0.00 0.00 0.00 0.00 0.00 0.01 0.01 0.02 0.03 0.03 0.03 0.05 0.05 0.07 0.07 0.08 0.10 0.14 0.19
0.00 0.00 0.00 0.00 0.00 0.04 0.07 0.01 0.00 0.00 0.00 0.00 0.00 0.00 0.00 0.00 0.01 0.01 0.01 0.01 0.00 0.00 0.00 0.00 0.00 0.00 0.00 0.00 0.00 0.00 0.00 0.01 0.01 0.02 0.03 0.04 0.06 0.08 0.09 0.13 0.15 0.19 0.22 0.24
0.00 0.00 0.00 0.00 0.00 0.03 0.02 0.00 0.00 0.00 0.00 0.00 0.00 0.00 0.00 0.00 0.00 0.00 0.00 0.00 0.00 0.00 0.00 0.00 0.00 0.00 0.00 0.00 0.00 0.01 0.01 0.01 0.02 0.03 0.05 0.06 0.09 0.11 0.14 0.16 0.22 0.29 0.32 0.30
0.00 0.00 0.00 0.00 0.00 0.02 0.02 0.00 0.00 0.00 0.02 0.00 0.00 0.00 0.00 0.00 0.00 0.00 0.00 0.00 0.00 0.00 0.00 0.00 0.00 0.00 0.00 0.01 0.01 0.02 0.02 0.04 0.05 0.07 0.08 0.10 0.14 0.18 0.21 0.24 0.29 0.33 0.38 0.38
0.00 0.00 0.00 0.00 0.00 0.00 0.00 0.00 0.00 0.00 0.00 0.00 0.00 0.00 0.00 0.00 0.00 0.00 0.00 0.00 0.00 0.00 0.00 0.00 0.00 0.00 0.01 0.01 0.03 0.06 0.07 0.09 0.10 0.11 0.11 0.13 0.17 0.22 0.25 0.32 0.36 0.38 0.40 0.42
0.00 0.00 0.00 0.00 0.01 0.01 0.00 0.00 0.00 0.00 0.00 0.00 0.00 0.00 0.00 0.00 0.00 0.00 0.00 0.00 0.00 0.00 0.00 0.00 0.00 0.00 0.01 0.03 0.07 0.10 0.12 0.12 0.12 0.13 0.14 0.14 0.17 0.18 0.21 0.31 0.35 0.39 0.46 0.48
0.00 0.00 0.00 0.00 0.00 0.00 0.00 0.00 0.00 0.00 0.00 0.00 0.00 0.00 0.00 0.00 0.00 0.00 0.00 0.00 0.00 0.00 0.00 0.00 0.00 0.01 0.02 0.05 0.10 0.15 0.13 0.13 0.15 0.16 0.16 0.17 0.18 0.22 0.27 0.33 0.34 0.36 0.40 0.41
0.00 0.00 0.00 0.00 0.00 0.00 0.00 0.00 0.00 0.00 0.00 0.00 0.00 0.00 0.00 0.00 0.00 0.00 0.00 0.00 0.00 0.00 0.00 0.00 0.02 0.04 0.06 0.07 0.09 0.12 0.13 0.16 0.20 0.20 0.19 0.20 0.22 0.24 0.28 0.36 0.38 0.37 0.37 0.37
0.00 0.00 0.00 0.00 0.00 0.00 0.00 0.00 0.00 0.00 0.00 0.00 0.00 0.00 0.00 0.00 0.00 0.00 0.00 0.00 0.00 0.00 0.01 0.02 0.05 0.09 0.10 0.09 0.09 0.10 0.14 0.22 0.25 0.24 0.23 0.23 0.26 0.28 0.29 0.35 0.38 0.33 0.33 0.30
0.00 0.00 0.00 0.00 0.00 0.00 0.00 0.00 0.00 0.00 0.00 0.00 0.00 0.00 0.00 0.00 0.00 0.00 0.00 0.00 0.00 0.01 0.04 0.08 0.12 0.14 0.14 0.13 0.13 0.13 0.19 0.27 0.32 0.30 0.27 0.26 0.27 0.28 0.30 0.34 0.34 0.26 0.19 0.16